When you browse on this site, cookies collect data to enhance your experience and personalize the content and advertising you see.
Visit our Privacy Policy to learn more. By continuing to use the site, you agree to this use of cookies and data.
  • In Hungary
  • List of Countries
  • For 7 days
  • Water Temperature
  • Satellite Maps
  • Weather Map
  • News
  • Weather Widgets
  • user-avatar
    Login

    Hourly Weather Mons

    Today, 21 November, Wednesday

    Time Temperature Precipitation Wind Pressure Humidity
    00:00 +2°C° 0 mm 2 mps 753 mmHg 86%
    01:00 +1°C° 0 mm 2 mps 753 mmHg 86%
    02:00 +1°C° 0 mm 2 mps 754 mmHg 87%
    03:00 0°C° 0 mm 3 mps 754 mmHg 87%
    04:00 +1°C° 0 mm 2 mps 755 mmHg 88%
    05:00 -1°C° 0 mm 2 mps 755 mmHg 89%
    06:00 -1°C° 0 mm 2 mps 756 mmHg 91%
    07:00 -1°C° 0 mm 2 mps 757 mmHg 87%
    08:00 +1°C° 0 mm 2 mps 757 mmHg 83%
    09:00 +2°C° 0 mm 2 mps 758 mmHg 79%
    10:00 +3°C° 0 mm 2 mps 758 mmHg 74%
    11:00 +5°C° 0 mm 2 mps 759 mmHg 70%
    12:00 +6°C° 0 mm 2 mps 759 mmHg 65%
    13:00 +6°C° 0 mm 2 mps 759 mmHg 68%
    14:00 +6°C° 0 mm 2 mps 759 mmHg 71%
    15:00 +5°C° 0 mm 2 mps 759 mmHg 75%
    16:00 +5°C° 0 mm 2 mps 759 mmHg 78%
    17:00 +4°C° 0 mm 2 mps 759 mmHg 81%
    18:00 +3°C° 0 mm 2 mps 760 mmHg 84%
    19:00 +3°C° 0 mm 2 mps 760 mmHg 85%
    20:00 +3°C° 0 mm 2 mps 760 mmHg 85%
    21:00 +3°C° 0 mm 2 mps 760 mmHg 86%
    22:00 +3°C° 0 mm 1 mps 760 mmHg 87%
    23:00 +3°C° 0 mm 1 mps 760 mmHg 88%

    Tomorrow, 22 November, Thursday

    Time Temperature Precipitation Wind Pressure Humidity
    00:00 +2°C° 0 mm 1 mps 760 mmHg 89%
    01:00 +2°C° 0 mm 1 mps 760 mmHg 89%
    02:00 +2°C° 0 mm 1 mps 760 mmHg 89%
    03:00 +2°C° 0 mm 1 mps 760 mmHg 89%
    04:00 +2°C° 0 mm 1 mps 760 mmHg 89%
    05:00 -1°C° 0 mm 2 mps 760 mmHg 89%
    06:00 -1°C° 0 mm 2 mps 760 mmHg 89%
    07:00 +1°C° 0 mm 2 mps 760 mmHg 86%
    08:00 +2°C° 0 mm 2 mps 760 mmHg 82%
    09:00 +3°C° 0 mm 2 mps 761 mmHg 78%
    10:00 +4°C° 0 mm 2 mps 760 mmHg 74%
    11:00 +6°C° 0 mm 2 mps 760 mmHg 70%
    12:00 +7°C° 0 mm 2 mps 760 mmHg 65%
    13:00 +7°C° 0 mm 2 mps 760 mmHg 69%
    14:00 +7°C° 0 mm 2 mps 760 mmHg 73%
    15:00 +6°C° 0 mm 2 mps 760 mmHg 76%
    16:00 +5°C° 0 mm 2 mps 760 mmHg 80%
    17:00 +5°C° 0 mm 2 mps 760 mmHg 84%
    18:00 +4°C° 0 mm 2 mps 760 mmHg 88%
    19:00 +4°C° 0 mm 2 mps 760 mmHg 89%
    20:00 +3°C° 0 mm 3 mps 760 mmHg 90%
    21:00 +3°C° 0 mm 3 mps 760 mmHg 91%
    22:00 +3°C° 0.1 mm 3 mps 760 mmHg 92%
    23:00 +3°C° 0.1 mm 3 mps 760 mmHg 93%

    Day after tomorrow, 23 November, Friday

    Time Temperature Precipitation Wind Pressure Humidity
    00:00 +3°C° 0.1 mm 3 mps 760 mmHg 94%
    01:00 +3°C° 0.1 mm 3 mps 760 mmHg 95%
    02:00 +3°C° 0.1 mm 3 mps 760 mmHg 95%
    03:00 +3°C° 0.1 mm 3 mps 760 mmHg 96%
    04:00 +3°C° 0 mm 3 mps 760 mmHg 96%
    05:00 +3°C° 0 mm 3 mps 760 mmHg 96%
    06:00 +3°C° 0 mm 3 mps 760 mmHg 96%
    07:00 +3°C° 0 mm 3 mps 760 mmHg 94%
    08:00 +4°C° 0 mm 3 mps 760 mmHg 92%
    09:00 +4°C° 0 mm 3 mps 760 mmHg 91%
    10:00 +7°C° 0 mm 3 mps 760 mmHg 87%
    11:00 +8°C° 0 mm 3 mps 759 mmHg 83%
    12:00 +9°C° 0 mm 2 mps 759 mmHg 79%
    13:00 +9°C° 0 mm 2 mps 759 mmHg 82%
    14:00 +8°C° 0 mm 2 mps 758 mmHg 84%
    15:00 +8°C° 0 mm 2 mps 758 mmHg 87%
    16:00 +7°C° 0 mm 2 mps 758 mmHg 88%
    17:00 +7°C° 0 mm 2 mps 758 mmHg 90%
    18:00 +6°C° 0 mm 2 mps 758 mmHg 91%
    19:00 +6°C° 0 mm 2 mps 758 mmHg 91%
    20:00 +7°C° 0 mm 1 mps 758 mmHg 91%
    21:00 +7°C° 0 mm 1 mps 758 mmHg 91%
    22:00 +7°C° 0 mm 1 mps 758 mmHg 91%
    23:00 +7°C° 0 mm 1 mps 758 mmHg 91%

    24 November, Saturday

    Time Temperature Precipitation Wind Pressure Humidity
    00:00 +7°C° 0 mm 1 mps 758 mmHg 92%
    01:00 +7°C° 0.1 mm 1 mps 758 mmHg 92%
    02:00 +7°C° 0.1 mm 1 mps 757 mmHg 93%
    03:00 +7°C° 0.1 mm 1 mps 757 mmHg 94%
    04:00 +7°C° 0.2 mm 1 mps 757 mmHg 94%
    05:00 +6°C° 0.2 mm 1 mps 757 mmHg 95%
    06:00 +6°C° 0.2 mm 1 mps 757 mmHg 96%
    07:00 +6°C° 0.1 mm 2 mps 757 mmHg 95%
    08:00 +6°C° 0.1 mm 2 mps 758 mmHg 94%
    09:00 +7°C° 0.1 mm 2 mps 758 mmHg 93%
    10:00 +7°C° 0.1 mm 2 mps 758 mmHg 92%
    11:00 +8°C° 0.1 mm 2 mps 758 mmHg 90%
    12:00 +8°C° 0.1 mm 3 mps 758 mmHg 88%
    13:00 +8°C° 0 mm 2 mps 758 mmHg 88%
    14:00 +8°C° 0 mm 2 mps 758 mmHg 88%
    15:00 +8°C° 0 mm 2 mps 758 mmHg 88%
    16:00 +8°C° 0 mm 2 mps 758 mmHg 89%
    17:00 +7°C° 0 mm 2 mps 758 mmHg 90%
    18:00 +7°C° 0 mm 2 mps 758 mmHg 92%
    19:00 +7°C° 0 mm 2 mps 758 mmHg 92%
    20:00 +8°C° 0 mm 1 mps 758 mmHg 92%
    21:00 +8°C° 0 mm 1 mps 758 mmHg 92%
    22:00 +8°C° 0 mm 1 mps 758 mmHg 92%
    23:00 +8°C° 0 mm 1 mps 758 mmHg 92%

    25 November, Sunday

    Time Temperature Precipitation Wind Pressure Humidity
    00:00 +8°C° 0 mm 1 mps 758 mmHg 92%
    01:00 +8°C° 0 mm 1 mps 757 mmHg 92%
    02:00 +7°C° 0 mm 2 mps 757 mmHg 92%
    03:00 +7°C° 0 mm 2 mps 757 mmHg 92%
    04:00 +6°C° 0 mm 2 mps 756 mmHg 92%
    05:00 +5°C° 0 mm 3 mps 756 mmHg 92%
    06:00 +5°C° 0 mm 3 mps 756 mmHg 92%
    07:00 +5°C° 0 mm 3 mps 756 mmHg 90%
    08:00 +6°C° 0 mm 4 mps 756 mmHg 87%
    09:00 +6°C° 0 mm 4 mps 755 mmHg 85%
    10:00 +7°C° 0 mm 4 mps 755 mmHg 82%
    11:00 +7°C° 0 mm 4 mps 755 mmHg 79%
    12:00 +8°C° 0 mm 4 mps 754 mmHg 75%
    13:00 +7°C° 0 mm 4 mps 754 mmHg 77%
    14:00 +7°C° 0 mm 4 mps 754 mmHg 79%
    15:00 +7°C° 0 mm 4 mps 753 mmHg 81%
    16:00 +6°C° 0 mm 4 mps 753 mmHg 83%
    17:00 +6°C° 0 mm 4 mps 753 mmHg 85%
    18:00 +5°C° 0 mm 4 mps 753 mmHg 87%
    19:00 +5°C° 0 mm 4 mps 753 mmHg 88%
    20:00 +5°C° 0 mm 4 mps 753 mmHg 88%
    21:00 +5°C° 0 mm 4 mps 752 mmHg 89%
    22:00 +4°C° 0 mm 4 mps 752 mmHg 90%
    23:00 +4°C° 0 mm 4 mps 752 mmHg 91%

    26 November, Monday

    Time Temperature Precipitation Wind Pressure Humidity
    00:00 +4°C° 0 mm 4 mps 751 mmHg 92%
    01:00 +4°C° 0 mm 4 mps 751 mmHg 93%
    02:00 +4°C° 0 mm 4 mps 751 mmHg 93%
    03:00 +4°C° 0 mm 4 mps 751 mmHg 93%
    04:00 +4°C° 0 mm 4 mps 751 mmHg 93%
    05:00 +4°C° 0 mm 4 mps 750 mmHg 93%
    06:00 +3°C° 0 mm 5 mps 750 mmHg 93%
    07:00 +5°C° 0.2 mm 5 mps 750 mmHg 91%
    08:00 +5°C° 0.2 mm 5 mps 750 mmHg 88%
    09:00 +5°C° 0.2 mm 6 mps 749 mmHg 86%
    10:00 +5°C° 0.1 mm 6 mps 749 mmHg 83%
    11:00 +7°C° 0.1 mm 6 mps 748 mmHg 79%
    12:00 +8°C° 0.1 mm 7 mps 748 mmHg 76%
    13:00 +8°C° 0.2 mm 6 mps 748 mmHg 78%
    14:00 +7°C° 0.2 mm 6 mps 747 mmHg 81%
    15:00 +7°C° 0.2 mm 5 mps 747 mmHg 83%
    16:00 +7°C° 0.6 mm 5 mps 747 mmHg 85%
    17:00 +7°C° 0.6 mm 6 mps 747 mmHg 87%
    18:00 +5°C° 0.6 mm 6 mps 747 mmHg 89%
    19:00 +5°C° 0.4 mm 6 mps 747 mmHg 88%
    20:00 +5°C° 0.4 mm 6 mps 747 mmHg 88%
    21:00 +5°C° 0.4 mm 6 mps 747 mmHg 87%
    22:00 +6°C° 0.1 mm 5 mps 747 mmHg 88%
    23:00 +6°C° 0.1 mm 5 mps 747 mmHg 89%
    Show more